Regional Weather Roundup
Issued by NWS

Home | Current Version | Previous Version | Text Only | Print | Product List | Glossary On
Versions: 1 2 3 4 5 6 7 8 9 10 11 12 13 14 15 16 17 18 19 20 21 22 23 24 25 26 27 28 29 30 31 32 33 34 35 36 37 38 39 40 41 42 43 44 45 46 47 48 49 50
561
ASUS43 KLSX 160607
RWRMO

WEATHER SUMMARY FOR MISSOURI
NATIONAL WEATHER SERVICE SPRINGFIELD MO
100 AM CDT WED AUG 16 2017

NOTE: "FAIR" INDICATES FEW OR NO CLOUDS BELOW 12,000 FEET WITH NO
       SIGNIFICANT WEATHER AND/OR OBSTRUCTIONS TO VISIBILITY.
       CURRENT SKY AND/OR WEATHER CONDITIONS ARE NOT AVAILABLE FOR
       CHILLICOTHE AND FARMINGTON.

MOZ001>031-035>038-043-044-053-054-160700-
...NORTHERN AND WESTERN MISSOURI...

CITY           SKY/WX    TMP DP  RH WIND       PRES   REMARKS
KANSAS CTY INT CLOUDY    76  70  82 SE7       29.86F
6HR MIN TEMP:  76; 6HR MAX TEMP:  83;

KANSAS C DTWN  CLOUDY    80  72  76 SE8       29.85S
6HR MIN TEMP:  80; 6HR MAX TEMP:  87;

LEE`S SUMMIT   CLOUDY    77  72  84 SE6       29.87F
6HR MIN TEMP:  74; 6HR MAX TEMP:  84;

ST JOSEPH      CLOUDY    76  72  87 SE7       29.86S
6HR MIN TEMP:  76; 6HR MAX TEMP:  85;

CHILLICOTHE      N/A     70  69  97 CALM      29.90S
6HR MIN TEMP:  69; 6HR MAX TEMP:  85;

KIRKSVILLE     CLEAR     70  68  93 E5        29.92S
6HR MIN TEMP:  69; 6HR MAX TEMP:  81;


$$
MOZ066>068-077>081-088>096-101>105-160700-
...SOUTHWEST MISSOURI...

CITY           SKY/WX    TMP DP  RH WIND       PRES   REMARKS
SPRINGFIELD    LGT RAIN  78  76  93 S6        29.91R
6HR MIN TEMP:  76; 6HR MAX TEMP:  82; 6HR PCP:  0.02;

JOPLIN         MOCLDY    75  74  96 S5        29.89S
6HR MIN TEMP:  74; 6HR MAX TEMP:  85; 6HR PCP:  0.32;

BRANSON        LGT RAIN  75  75 100 SW9G17    29.94F

$$
MOZ032>034-039>042-045>050-055>058-069>072-160700-
...CENTRAL MISSOURI...

CITY           SKY/WX    TMP DP  RH WIND       PRES   REMARKS
COLUMBIA       PTCLDY    75  71  87 SE5       29.90S
6HR MIN TEMP:  74; 6HR MAX TEMP:  85;

JEFFERSON CITY CLOUDY    76  74  93 SE8       29.88F
6HR MIN TEMP:  74; 6HR MAX TEMP:  86;

ROLLA          PTCLDY    74  72  93 SE7       29.93F
6HR MIN TEMP:  74; 6HR MAX TEMP:  83;

SEDALIA        PTCLDY    75  73  93 SE3       29.89F
6HR MIN TEMP:  74; 6HR MAX TEMP:  84;

WHITEMAN AFB   MOCLDY    75  75 100 SE3       29.86F
WARRENSBURG    CLOUDY    73  68  83 E5        29.87F
OSAGE BEACH    CLOUDY    76  72  87 SE3       29.89F

$$
MOZ051-052-059>065-160700-
...EAST CENTRAL MISSOURI...

CITY           SKY/WX    TMP DP  RH WIND       PRES   REMARKS
ST LOUIS INTL  MOCLDY    79  72  79 S6        29.94R
6HR MIN TEMP:  79; 6HR MAX TEMP:  87;

SPIRIT OF STL  MOCLDY    78  72  81 S5        29.91S
6HR MIN TEMP:  78; 6HR MAX TEMP:  88;

ST CHARLES     MOCLDY    73  70  90 SE6       29.92R
6HR MIN TEMP:  72; 6HR MAX TEMP:  85;


$$
MOZ072>076-082>087-097>100-106>115-160700-
...SOUTH CENTRAL AND SOUTHEAST MISSOURI...

CITY           SKY/WX    TMP DP  RH WIND       PRES   REMARKS
CAPE GIRARDEAU CLEAR     71  69  93 SE3       29.93F
6HR MIN TEMP:  70; 6HR MAX TEMP:  80;

FARMINGTON     CLOUDY    73  71  93 SE3       29.95F
6HR MIN TEMP:  73; 6HR MAX TEMP:  83;

POPLAR BLUFF   CLOUDY    73  73 100 E3        29.91F
6HR MIN TEMP:  72; 6HR MAX TEMP:  80;

WEST PLAINS    CLOUDY    74  73  97 SE5       29.95S
6HR MIN TEMP:  74; 6HR MAX TEMP:  82; 6HR PCP:  0.04;


$$



USA.gov is the U.S. government's official web portal to all federal, state and local government web resources and services.